ONEWEB-0283 (49001 NORAD) Tracking and Keplerian Element Data

This shows tracking and keplerian element data for the satellite.

Feedback or suggestion? Click here.




ElementValue
Catalog49001
NameONEWEB-0283
Epoch Orbit569
Epoch Day211.25001157
Epoch Year2021
RAAN227.3865
Inclination87.4684
Eccentricity0.0012801
Argument of Perigee143.6155
Mean Anonmoly200.3558
Mean Motion15.01405622
Decay Rate-0.01462402
L11 49001U 21060AL 21211.25001157 -.01462402 00000-0 -12402+0 0 9990
L22 49001 87.4684 227.3865 0012801 143.6155 200.3558 15.01405622 5692

Live tracking and technical data element details for ONEWEB-0283 (NORAD 49001). ONEWEB-0283 can be tracked NOW for your location showing map with azimuth and elevation plus other details from your city location.

Track the satellite on the map from your city or location and see movement details for azimuth, elevation, latitude, longitude, range, height, and movement on the map or in text.







IsCatalogInMostPopularTable: catalog: 49001, numindb: 2
Update: records affected: 1



GetName: 49001 ONEWEB-0283

Hit Count: updated at: Sat, 31 Jul 2021 14:59:23 GMT